Jaffrey, NH

12:04 PM EDT on March 24, 2017 (GMT -0400)
Jaffrey Airport-Silver Ranch

Weather History for KAFN - December, 2011

Change the Weather History Date:

Monday, December 5, 2011

  Actual Average Record
Temperature  
Mean Temperature 48 °F -  
Max Temperature 55 °F 36 °F 60 °F (2001)
Min Temperature 42 °F 21 °F 3 °F (2003)
Degree Days  
Heating Degree Days 16    
Moisture  
Dew Point 44 °F    
Average Humidity 89    
Maximum Humidity 100    
Minimum Humidity 67    
Precipitation  
Precipitation 0.00 in - - ()
Sea Level Pressure  
Sea Level Pressure 30.30 in    
Wind  
Wind Speed 6 mph (SSW)    
Max Wind Speed 9 mph    
Max Gust Speed 17 mph    
Visibility 9 miles    
Events      
Averages and records for this station are not official NWS values.
T = Trace of Precipitation, MM = Missing Value Source: NWS Daily Summary

Daily Weather History Graph

Daily Weather History Graph

Search for Another Location

Airport or City:

Trip Planner

Search our weather history database for the weather conditions in past years. The results will help you decide how hot, cold, wet, or windy it might be!

Date:

Astronomy

Dec. 05, 2011 Rise Set
Actual Time 7:02 AM EST 4:14 PM EST
Civil Twilight 6:30 AM EST 4:45 PM EST
Nautical Twilight 5:55 AM EST 5:21 PM EST
Astronomical Twilight 5:21 AM EST 5:55 PM EST
Moon 1:14 PM EST (12/5) 2:16 AM EST (12/5)
Length of Visible Light 10h 15m
Length of Day
9h 11m
Waxing Gibbous, 79% of the Moon is Illuminated
Dec 5
Waxing Gibbous
Dec 10
Full
Dec 17
Last Quarter
Dec 24
New
Jan 1
First Quarter

Hourly Weather History & Observations

Time (EST) Temp. Windchill Dew Point Humidity Pressure Visibility Wind Dir Wind Speed Gust Speed Precip Events Conditions
12:52 AM 43.0 °F 38.8 °F 41.0 °F 93% 30.38 in 10.0 mi SW 6.9 mph - N/A   Overcast
1:36 AM 42.8 °F 38.6 °F 41.0 °F 93% 30.34 in 10.0 mi SSW 6.9 mph - N/A   Scattered Clouds
1:52 AM 42.1 °F 37.7 °F 41.0 °F 96% 30.38 in 10.0 mi SSW 6.9 mph - N/A   Clear
2:52 AM 43.0 °F 38.2 °F 41.0 °F 93% 30.37 in 10.0 mi SSW 8.1 mph - N/A   Mostly Cloudy
3:38 AM 44.6 °F 40.7 °F 42.8 °F 93% 30.32 in 10.0 mi SSW 6.9 mph - N/A   Partly Cloudy
3:52 AM 44.1 °F 39.0 °F 42.1 °F 93% 30.35 in 10.0 mi SSW 9.2 mph - N/A   Clear
4:52 AM 43.0 °F 40.3 °F 42.1 °F 97% 30.34 in 9.0 mi Variable 4.6 mph - N/A   Clear
7:52 AM 43.0 °F - 42.1 °F 97% 30.37 in 5.0 mi Calm Calm - N/A   Partly Cloudy
8:17 AM 42.8 °F 41.1 °F 42.8 °F 100% 30.32 in 5.0 mi SSW 3.5 mph - N/A   Mostly Cloudy
8:52 AM 44.1 °F 42.5 °F 43.0 °F 96% 30.37 in 6.0 mi Variable 3.5 mph - N/A   Mostly Cloudy
9:12 AM 44.6 °F 42.2 °F 42.8 °F 93% 30.33 in 7.0 mi SW 4.6 mph - N/A   Scattered Clouds
9:52 AM 45.0 °F 42.6 °F 43.0 °F 93% 30.37 in 8.0 mi SSW 4.6 mph - N/A   Partly Cloudy
10:52 AM 46.9 °F - 44.1 °F 90% 30.35 in 10.0 mi South 5.8 mph - N/A   Clear
11:52 AM 50.0 °F - 44.1 °F 80% 30.33 in 10.0 mi South 6.9 mph - N/A   Clear
12:52 PM 52.0 °F - 44.1 °F 74% 30.30 in 10.0 mi SSW 6.9 mph - N/A   Clear
1:52 PM 54.0 °F - 44.1 °F 69% 30.27 in 10.0 mi SSW 8.1 mph 17.3 mph N/A   Clear
2:52 PM 55.0 °F - 44.1 °F 67% 30.26 in 10.0 mi SSW 5.8 mph - N/A   Clear
3:52 PM 54.0 °F - 45.0 °F 72% 30.25 in 10.0 mi SSW 5.8 mph - N/A   Clear
4:52 PM 52.0 °F - 45.0 °F 77% 30.25 in 10.0 mi South 5.8 mph - N/A   Clear
5:52 PM 50.0 °F - 45.0 °F 83% 30.26 in 10.0 mi SSW 5.8 mph - N/A   Clear
6:52 PM 46.9 °F - 44.1 °F 90% 30.26 in 10.0 mi SSW 3.5 mph - N/A   Clear
7:52 PM 44.1 °F 42.5 °F 43.0 °F 96% 30.26 in 10.0 mi South 3.5 mph - N/A   Clear
8:52 PM 48.0 °F - 45.0 °F 89% 30.25 in 10.0 mi SSW 6.9 mph - N/A   Clear
9:52 PM 48.0 °F - 46.0 °F 93% 30.25 in 9.0 mi SSW 9.2 mph - N/A   Clear
10:52 PM 48.0 °F - 46.0 °F 93% 30.24 in 9.0 mi South 6.9 mph - N/A   Mostly Cloudy
11:52 PM 48.0 °F - 46.9 °F 96% 30.21 in 9.0 mi South 5.8 mph - N/A   Overcast
11:59 PM 48.2 °F - 46.4 °F 93% 30.18 in 9.0 mi SSW 6.9 mph - N/A   Overcast